• Processing (Info)

  • MPEC 2014-N53 : 2014 NE39

    The following Minor Planet Electronic Circular may be linked-to from your own Web pages, but must not otherwise be redistributed electronically.

    A form allowing access to any MPEC is at the bottom of this page.


    Read MPEC 2014-N52 Read MPEC 2014-N54


    M.P.E.C. 2014-N53                                Issued 2014 July 7, 17:02 UT
    
         The Minor Planet Electronic Circulars contain information on unusual
             minor planets and routine data on comets.  They are published
       on behalf of Commission 20 of the International Astronomical Union by the
              Minor Planet Center, Smithsonian Astrophysical Observatory,
                              Cambridge, MA 02138, U.S.A.
    
                 Prepared using the Tamkin Foundation Computer Network
    
                                  MPC@CFA.HARVARD.EDU
                URL https://www.minorplanetcenter.net/    ISSN 1523-6714
    
                                       2014 NE39
    
    Observations:
         K14N39E* C2014 07 02.54456 22 34 38.892-27 12 42.92         20.9 wLEN053F51
         K14N39E  C2014 07 02.54654 22 34 38.869-27 12 37.53         21.1 wLEN053F51
         K14N39E  C2014 07 02.55445 22 34 38.688-27 12 16.92         21.1 wLEN053F51
         K14N39E  C2014 07 02.55643 22 34 38.630-27 12 11.81         21.1 wLEN053F51
         K14N39E  C2014 07 02.56633 22 34 38.437-27 11 46.02         21.1 wLEN053F51
         K14N39E  C2014 07 02.57425 22 34 38.239-27 11 25.09         21.1 wLEN053F51
         K14N39E _C2014 07 03.53015422 34 23.387-26 28 55.05         20.5 RtEN053568
         K14N39E _C2014 07 03.53140622 34 23.355-26 28 51.67         20.6 RtEN053568
         K14N39E _C2014 07 03.53269122 34 23.318-26 28 48.18         20.6 RtEN053568
         K14N39E _C2014 07 03.55800222 34 22.654-26 27 39.83         20.6 RtEN053568
         K14N39E _C2014 07 03.55925722 34 22.623-26 27 36.42         20.7 RtEN053568
         K14N39E  C2014 07 04.53762 22 34 02.690-25 42 38.74         20.8 wLEN053F51
         K14N39E  C2014 07 04.54746 22 34 02.386-25 42 11.24         20.9 wLEN053F51
         K14N39E  C2014 07 04.55732 22 34 02.081-25 41 43.84         20.9 wLEN053F51
         K14N39E  C2014 07 04.56716 22 34 01.768-25 41 16.22         21.1 wLEN053F51
         K14N39E |C2014 07 07.41559 22 32 36.04 -23 21 14.0          21.1 VuEN053807
         K14N39E |C2014 07 07.42187 22 32 35.75 -23 20 54.4          21.0 VuEN053807
         K14N39E |C2014 07 07.42946 22 32 35.43 -23 20 30.5          21.0 VuEN053807
    
    Observer details:
    568 Mauna Kea.  Observers R. J. Wainscoat, D. Woodworth.  Measurers M. Micheli,
        R. J. Wainscoat.  3.6-m Canada-France-Hawaii Telescope + CCD.
    807 Cerro Tololo.  Observers T. Linder, R. Holmes.  Measurers T. Linder,
        R. Holmes, C. Smith.  0.41-m f/11 Ritchey-Chretien + CCD.
    F51 Pan-STARRS 1, Haleakala.  Observers N. Primak, A. Schultz, T. Goggia,
        M. Willman.  1.8-m Ritchey-Chretien + CCD.
    
    Orbital elements:
    2014 NE39                                                Earth MOID = 0.2833 AU
    Epoch 2014 May 23.0 TT = JDT 2456800.5                  MPC
    M 315.71772              (2000.0)            P               Q
    n   0.42362427     Peri.   36.24701     +0.89158521     +0.23278166
    a   1.7558288      Node   305.54945     -0.43717107     +0.66621030
    e   0.2858387      Incl.   28.51768     +0.11814090     +0.70850302
    P   2.33           H   20.5           G   0.15           U   6
    Residuals in seconds of arc
    140702 F51  0.1-  0.1-    140703 568  0.1+  0.2-    140704 F51  0.0   0.1+
    140702 F51  0.2+  0.1+    140703 568  0.1+  0.2-    140704 F51  0.0   0.1-
    140702 F51  0.0   0.1+    140703 568  0.1+  0.1-    140704 F51  0.0   0.0
    140702 F51  0.2-  0.0     140703 568  0.1+  0.0     140707 807  0.1+  0.2-
    140702 F51  0.1+  0.1-    140703 568  0.1+  0.0     140707 807  0.1-  0.1-
    140702 F51  0.2-  0.1+    140704 F51  0.0   0.0     140707 807  0.1+  0.2+
    
    Ephemeris:
    2014 NE39                a,e,i = 1.76, 0.29, 29                  q = 1.2539
    Date    TT    R. A. (2000) Decl.     Delta      r     Elong.  Phase     V
    2014 06 07    22 19 07.5 -40 10 27   0.7082  1.4371   111.8    41.0    22.1
    ...
    2014 06 22    22 33 02.2 -33 43 40   0.5595  1.3868   120.5    39.1    21.5
    ...
    2014 06 30    22 34 58.4 -28 59 13   0.4864  1.3622   126.3    37.0    21.1
    ...
    2014 07 06    22 33 23.8 -24 32 27   0.4362  1.3450   131.3    34.6    20.8
    2014 07 07    22 32 51.5 -23 42 33   0.4283  1.3422   132.2    34.2    20.7
    2014 07 08    22 32 14.3 -22 50 58   0.4205  1.3395   133.1    33.7    20.7
    ...
    2014 07 14    22 26 43.4 -17 02 37   0.3776  1.3238   138.7    30.5    20.3
    ...
    2014 07 22    22 14 14.6 -07 25 49   0.3324  1.3050   146.0    25.8    19.9
    ...
    2014 08 06    21 35 14.9 +14 38 20   0.2992  1.2769   147.5    25.2    19.6
    
    A. U. Tomatic                (C) Copyright 2014 MPC           M.P.E.C. 2014-N53
    

    Read MPEC 2014-N52 Read MPEC 2014-N54


    MPEC number:

    Enter an MPEC number in one of the following forms:

    • 1997-B01 (the full form)
    • J97B01 (the packed version of the full form)
    • B01 (the abbreviated form)